Location: Unspecified
(0.0000°N, 0.0000°E)
Time: 07:53:10
(UTC+00:00)

Vanguard 2 - Pass Details

Date: 20 December 2018
Orbit: 553 x 2939 km, 32.9° (Epoch: 18 March)

Event Time Altitude Azimuth Distance (km) Brightness Sun altitude
Rises 07:45:05 0° 237° (WSW) 6,774 12.1 24.5°
Reaches altitude 10° 07:53:30 10° 216° (SW) 5,733 11.9 26.4°
Maximum altitude 08:01:31 14° 188° (S) 5,123 12.1 28.2°
Drops below altitude 10° 08:08:47 10° 159° (SSE) 5,111 12.5 29.8°
Sets 08:15:22 0° 136° (SE) 5,628 12.9 31.3°
